User: anonymous   Login
Location: PACMO
(41.3967°N, 90.3760°W)
Time: 01:33:48
(UTC-05:00)
Language:

NOAA 19 - Orbit

View from above orbital plane
View from above orbital plane
View from above satellite
View from above satellite

Ground track
Ground track

The orbit data is extracted from the following two-line orbital elements,

1 33591U 09005A   15181.48867135  .00000089  00000-0  73153-4 0  9993
2 33591 098.9904 131.3993 0014822 129.4749 230.7736 14.11950411329362
Epoch (UTC): 30 June 2015 11:43:41
Eccentricity: 0.0014822
inclination: 98.9904°
perigee height: 842 km
apogee height: 863 km
right ascension of ascending node: 131.3993°
argument of perigee: 129.4749°
revolutions per day: 14.11950411
mean anomaly at epoch: 230.7736°
orbit number at epoch: 32936

The dashed part of the orbit path shows where the satellite is in the earth's shadow,  

DLR